Regional Weather Roundup
Issued by NWS Little Rock, AR

Home | Current Version | Previous Version | Graphics & Text | Print | Product List | Glossary On
Versions: 1 2 3 4 5 6 7 8 9 10 11 12 13 14 15 16 17 18 19 20 21 22 23 24 25 26 27
000
ASUS44 KLZK 301105
RWRLZK

WEATHER ROUNDUP FOR ARKANSAS
NATIONAL WEATHER SERVICE LITTLE ROCK AR
600 AM CDT MON MAY 30 2016

NOTE: "FAIR" INDICATES FEW OR NO CLOUDS BELOW 12,000 FEET WITH NO
SIGNIFICANT WEATHER AND/OR OBSTRUCTIONS TO VISIBILITY.

ARZ001-003-010-029-301200-
NORTHWEST ARKANSAS

CITY           SKY/WX    TMP DP  RH WIND       PRES   REMARKS
FAYETTEVILLE   CLOUDY    59  59 100 CALM      30.07R
FORT SMITH     CLOUDY    67  64  90 E3        30.04R
HARRISON       MOCLDY    61  61 100 CALM      30.09R FOG
BENTONVILLE    CLOUDY    64  59  82 CALM      30.07R
ROGERS           N/A     64  63  96 CALM      30.09R
SILOAM SPGS    MOCLDY    64  55  72 E3        30.08R
HIGHFILL       CLOUDY    62  61  96 CALM      30.07R
SPRINGDALE     PTCLDY    64  63  94 CALM      30.09
$$

ARZ004-005-016-301200-
NORTH CENTRAL ARKANSAS

CITY           SKY/WX    TMP DP  RH WIND       PRES   REMARKS
BATESVILLE     CLEAR     64  63  94 CALM      30.06S
FLIPPIN        CLOUDY   N/A N/A N/A CALM      30.05R VSB 1/4
MTN HOME       CLEAR     63  62  97 NE3       30.06R
$$

ARZ040-041-301200-
WEST CENTRAL ARKANSAS

CITY           SKY/WX    TMP DP  RH WIND       PRES   REMARKS
MENA           CLOUDY    64  63  94 CALM      30.06S
MOUNT IDA      MOCLDY    63  61  93 CALM      30.03R
$$

ARZ009-017-025-026-028-301200-
NORTHEAST ARKANSAS

CITY           SKY/WX    TMP DP  RH WIND       PRES   REMARKS
CORNING          N/A     68  68 100 CALM      30.07R
JONESBORO      CLEAR     68  66  93 CALM      30.06R
NEWPORT        CLEAR     69  69 100 NE5       30.06R
WALNUT RIDGE   CLEAR     66  64  94 W3        30.07R
BLYTHEVILLE    CLEAR     69  66  90 CALM      30.05R
$$

ARZ022-023-033-042-044-301200-
CENTRAL ARKANSAS

CITY           SKY/WX    TMP DP  RH WIND       PRES   REMARKS
LITTLE ROCK    MOCLDY    66  62  87 CALM      30.05S
N LITTLE ROCK    N/A     67  60  80 CALM      30.03S
JACKSONVILLE   CLOUDY    64  64  99 NE1       30.04R
SEARCY         CLEAR     63  63 100 CALM      30.07R FOG
HOT SPRINGS    PTCLDY    65  63  93 W3        30.05R
RUSSELLVILLE   CLOUDY    62  61  96 CALM      30.05R
CLINTON        FAIR      61  61 100 CALM      30.07R FOG
$$

ARZ036-301200-
EAST ARKANSAS

CITY           SKY/WX    TMP DP  RH WIND       PRES   REMARKS
WEST MEMPHIS   FOG       68  67  96 CALM      30.04S VSB 3/4
$$

ARZ050-053-066-070-073-301200-
SOUTHWEST ARKANSAS

CITY           SKY/WX    TMP DP  RH WIND       PRES   REMARKS
ARKADELPHIA    FAIR      66  66 100 CALM      30.05R
CAMDEN         CLOUDY    66  61  82 CALM      30.05R
TEXARKANA      CLOUDY    66  65  96 CALM      30.03R
EL DORADO      CLOUDY    65  63  93 CALM      30.05R
DE QUEEN       CLOUDY    66  65  96 CALM      30.01S
$$

ARZ056-057-069-301200-
SOUTHEAST ARKANSAS

CITY           SKY/WX    TMP DP  RH WIND       PRES   REMARKS
PINE BLUFF     CLOUDY    65  63  93 CALM      30.05R
STUTTGART      CLOUDY    66  61  82 NE3       30.06R
MONTICELLO     PTCLDY    64  62  93 CALM      30.05S

$$






USA.gov is the U.S. government's official web portal to all federal, state and local government web resources and services.